User: anonymous   Login
Location: Geremba
(10.4250°N, 67.2394°W)
Time: 09:16:40
(UTC+00:00)
Language:

Cosmos 1072 Rocket - Orbit

View from above orbital plane
View from above orbital plane
View from above satellite
View from above satellite

Ground track
Ground track

The orbit data is extracted from the following two-line orbital elements,

1 11239U 79003B   24200.87987449  .00000165  00000-0  15347-3 0  9994
2 11239  82.9406 326.9202 0040733   3.4977 112.6182 13.76000627283576
Epoch (UTC): 18 July 2024 21:07:01
Eccentricity: 0.0040733
inclination: 82.9406°
perigee height: 948 km
apogee height: 1008 km
right ascension of ascending node: 326.9202°
argument of perigee: 3.4977°
revolutions per day: 13.76000627
mean anomaly at epoch: 112.6182°
orbit number at epoch: 28357

The dashed part of the orbit path shows where the satellite is in the earth's shadow,  

DLR